Location: Bailleul
(50.3375°N, 2.8513°E)
Time: 03:56:04
(UTC+00:00)

IRIDIUM 103 - Pass Details

Date: 19 April 2021
Orbit: 776 x 779 km, 86.4° (Epoch: 09 May)

Event Time Altitude Azimuth Distance (km) Brightness Sun altitude
Exits shadow 20:24:07 - 178° (S) 2,584 6.7 -14.0°
Reaches altitude 10° 20:24:46 10° 178° (S) 2,326 6.4 -14.1°
Maximum altitude 20:29:58 80° 92° (E) 797 4.3 -14.7°
Drops below altitude 10° 20:35:13 10° 6° (N) 2,341 7.3 -15.3°
Sets 20:37:35 0° 6° (N) 3,273 8.1 -15.6°
